Location: Hilton Head Island
(32.2163°N, 80.7526°W)
Time: 15:31:48
(UTC-05:00)

Explorer 11/Cluster Stage 4 - Pass Details

Date: 25 February 2026
Orbit: 463 x 1176 km, 28.8° (Epoch: 6 March)

Event Time Altitude Azimuth Distance (km) Brightness Sun altitude
Rises 08:26:17 0° 225° (SW) 3,938 10.0 17.7°
Reaches altitude 10° 08:29:38 10° 214° (SW) 2,900 9.4 18.3°
Maximum altitude 08:35:29 28° 159° (SSE) 1,746 9.3 19.5°
Drops below altitude 10° 08:40:36 10° 103° (ESE) 2,508 11.1 20.4°
Sets 08:43:17 0° 91° (E) 3,322 10.9 20.9°
